TimeCST,TemperatureF,Dew PointF,Humidity,Sea Level PressureIn,VisibilityMPH,Wind Direction,Wind SpeedMPH,Gust SpeedMPH,PrecipitationIn,Events,Conditions,WindDirDegrees,DateUTC
12:15 AM,-0.6,-3.8,86,30.16,10.0,WNW,8.1,-,N/A,,Clear,300,2013-02-15 06:15:00
12:35 AM,-2.2,-5.1,88,30.17,10.0,NW,8.1,-,N/A,,Clear,310,2013-02-15 06:35:00
12:55 AM,-2.7,-5.4,88,30.17,10.0,WNW,6.9,-,N/A,,Clear,300,2013-02-15 06:55:00
1:15 AM,-2.6,-5.4,87,30.17,10.0,WNW,6.9,-,N/A,,Clear,300,2013-02-15 07:15:00
1:35 AM,-2.6,-5.3,88,30.17,10.0,WNW,6.9,-,N/A,,Clear,290,2013-02-15 07:35:00
1:55 AM,-1.7,-4.5,88,30.17,10.0,WNW,6.9,-,N/A,,Clear,290,2013-02-15 07:55:00
2:15 AM,-1.5,-4.5,87,30.17,10.0,WNW,6.9,-,N/A,,Clear,290,2013-02-15 08:15:00
2:35 AM,-4.4,-7.6,86,30.18,10.0,WNW,5.8,-,N/A,,Clear,300,2013-02-15 08:35:00
2:55 AM,-5.6,-8.7,87,30.18,10.0,WNW,5.8,-,N/A,,Clear,300,2013-02-15 08:55:00
3:15 AM,-4.7,-7.8,87,30.18,10.0,WNW,6.9,-,N/A,,Clear,290,2013-02-15 09:15:00
3:35 AM,-5.1,-8.5,85,30.18,10.0,WNW,5.8,-,N/A,,Clear,290,2013-02-15 09:35:00
3:55 AM,-6.0,-9.6,84,30.18,10.0,WNW,6.9,-,N/A,,Mostly Cloudy,290,2013-02-15 09:55:00
4:15 AM,-6.3,-9.6,86,30.18,10.0,WNW,6.9,-,N/A,,Scattered Clouds,290,2013-02-15 10:15:00
4:35 AM,-2.7,-6.2,85,30.19,10.0,WNW,8.1,-,N/A,,Clear,290,2013-02-15 10:35:00
4:55 AM,-2.9,-6.3,85,30.19,10.0,WNW,6.9,-,N/A,,Clear,290,2013-02-15 10:55:00
5:15 AM,-6.2,-9.8,84,30.19,10.0,WNW,6.9,-,N/A,,Clear,290,2013-02-15 11:15:00
5:35 AM,-6.2,-9.6,85,30.20,10.0,WNW,6.9,-,N/A,,Clear,290,2013-02-15 11:35:00
5:55 AM,-4.7,-8.1,85,30.20,10.0,WNW,6.9,-,N/A,,Clear,290,2013-02-15 11:55:00
6:15 AM,-7.6,-11.6,83,30.21,10.0,WNW,5.8,-,N/A,,Clear,290,2013-02-15 12:15:00
6:35 AM,-9.9,-13.9,83,30.21,10.0,WNW,5.8,-,N/A,,Clear,290,2013-02-15 12:35:00
6:55 AM,-11.4,-15.3,83,30.22,10.0,WNW,5.8,-,N/A,,Clear,290,2013-02-15 12:55:00
7:15 AM,-9.8,-13.4,84,30.22,10.0,WNW,3.5,-,N/A,,Clear,300,2013-02-15 13:15:00
7:35 AM,-8.1,-11.9,84,30.22,10.0,WNW,4.6,-,N/A,,Clear,290,2013-02-15 13:35:00
7:55 AM,-10.7,-14.8,82,30.24,10.0,WNW,4.6,-,N/A,,Clear,290,2013-02-15 13:55:00
8:15 AM,-7.4,-11.0,84,30.24,3.0,West,4.6,-,N/A,,Clear,270,2013-02-15 14:15:00
8:55 AM,-4.5,-8.1,84,30.24,4.0,WNW,6.9,-,N/A,,Clear,290,2013-02-15 14:55:00
9:15 AM,-3.8,-7.6,84,30.25,10.0,WNW,5.8,-,N/A,,Clear,300,2013-02-15 15:15:00
9:35 AM,-3.1,-6.7,85,30.25,10.0,WNW,8.1,-,N/A,,Clear,300,2013-02-15 15:35:00
9:55 AM,-0.6,-4.4,84,30.26,10.0,WNW,5.8,-,N/A,,Clear,290,2013-02-15 15:55:00
10:15 AM,0.5,-3.3,84,30.26,10.0,West,6.9,-,N/A,,Clear,280,2013-02-15 16:15:00
10:35 AM,2.1,-1.7,84,30.26,10.0,WNW,9.2,-,N/A,,Clear,300,2013-02-15 16:35:00
10:55 AM,3.4,-0.6,84,30.26,10.0,NW,10.4,-,N/A,,Clear,310,2013-02-15 16:55:00
11:15 AM,4.6,0.7,84,30.26,10.0,WNW,9.2,-,N/A,,Clear,300,2013-02-15 17:15:00
11:35 AM,5.9,1.4,82,30.26,10.0,WNW,10.4,-,N/A,,Clear,300,2013-02-15 17:35:00
11:55 AM,7.0,0.9,76,30.27,10.0,NNW,11.5,-,N/A,,Clear,340,2013-02-15 17:55:00
12:15 PM,7.7,-1.1,67,30.27,10.0,NNW,10.4,-,N/A,,Mostly Cloudy,330,2013-02-15 18:15:00
12:35 PM,7.9,-1.1,67,30.26,10.0,NNW,8.1,-,N/A,,Overcast,330,2013-02-15 18:35:00
12:55 PM,8.6,-0.8,66,30.26,10.0,NW,8.1,-,N/A,,Overcast,320,2013-02-15 18:55:00
1:15 PM,9.1,-0.2,66,30.25,10.0,WNW,9.2,-,N/A,,Overcast,290,2013-02-15 19:15:00
1:35 PM,9.3,-0.0,66,30.25,7.0,WNW,13.8,-,N/A,,Overcast,290,2013-02-15 19:35:00
1:55 PM,9.0,0.5,69,30.25,5.0,WNW,15.0,-,N/A,,Haze,300,2013-02-15 19:55:00
2:15 PM,8.8,0.9,70,30.24,10.0,NW,10.4,-,N/A,,Overcast,310,2013-02-15 20:15:00
2:35 PM,9.5,1.4,70,30.24,10.0,WNW,11.5,-,N/A,,Overcast,290,2013-02-15 20:35:00
2:55 PM,10.2,1.9,69,30.23,10.0,NW,12.7,-,N/A,,Overcast,310,2013-02-15 20:55:00
3:15 PM,10.6,2.1,69,30.22,10.0,WNW,12.7,-,N/A,,Overcast,300,2013-02-15 21:15:00
3:35 PM,10.6,1.9,68,30.22,10.0,WNW,10.4,-,N/A,,Mostly Cloudy,300,2013-02-15 21:35:00
3:55 PM,10.4,1.8,68,30.23,10.0,NW,11.5,-,N/A,,Scattered Clouds,310,2013-02-15 21:55:00
4:15 PM,9.9,1.6,69,30.22,10.0,WNW,12.7,-,N/A,,Mostly Cloudy,300,2013-02-15 22:15:00
4:35 PM,10.0,1.4,68,30.23,10.0,WNW,15.0,-,N/A,,Mostly Cloudy,300,2013-02-15 22:35:00
4:55 PM,9.7,1.6,70,30.22,10.0,WNW,12.7,-,N/A,,Overcast,300,2013-02-15 22:55:00
5:15 PM,9.3,1.6,71,30.22,10.0,West,10.4,-,N/A,,Overcast,280,2013-02-15 23:15:00
5:35 PM,8.8,1.4,72,30.22,10.0,West,10.4,16.1,N/A,,Overcast,280,2013-02-15 23:35:00
5:55 PM,8.6,1.6,73,30.22,10.0,WNW,10.4,-,N/A,,Overcast,290,2013-02-15 23:55:00
6:15 PM,8.6,1.9,74,30.21,10.0,West,10.4,-,N/A,,Overcast,280,2013-02-16 00:15:00
6:35 PM,8.6,2.1,75,30.21,10.0,West,10.4,-,N/A,,Overcast,280,2013-02-16 00:35:00
6:55 PM,8.4,2.3,76,30.20,10.0,West,11.5,-,N/A,,Overcast,270,2013-02-16 00:55:00
7:15 PM,8.1,2.3,77,30.20,10.0,West,9.2,-,N/A,,Overcast,270,2013-02-16 01:15:00
7:35 PM,7.7,2.5,79,30.20,10.0,West,9.2,-,N/A,Snow,Light Snow,270,2013-02-16 01:35:00
7:55 PM,7.7,2.5,79,30.20,10.0,West,8.1,-,N/A,Snow,Light Snow,280,2013-02-16 01:55:00
8:15 PM,7.5,2.3,79,30.19,10.0,West,8.1,-,N/A,Snow,Light Snow,270,2013-02-16 02:15:00
8:35 PM,7.3,2.3,80,30.19,7.0,West,8.1,-,N/A,Snow,Light Snow,280,2013-02-16 02:35:00
8:55 PM,7.2,2.1,80,30.19,10.0,West,5.8,-,N/A,,Overcast,280,2013-02-16 02:55:00
9:15 PM,7.0,2.1,80,30.18,10.0,West,8.1,-,N/A,Snow,Light Snow,270,2013-02-16 03:15:00
9:35 PM,6.8,2.1,81,30.18,10.0,WNW,5.8,-,N/A,Snow,Light Snow,290,2013-02-16 03:35:00
9:55 PM,6.8,2.1,81,30.18,10.0,West,5.8,-,N/A,Snow,Light Snow,270,2013-02-16 03:55:00
10:15 PM,6.6,2.1,82,30.18,7.0,West,5.8,-,N/A,Snow,Light Snow,270,2013-02-16 04:15:00
10:35 PM,6.6,2.1,82,30.17,10.0,West,4.6,-,N/A,Snow,Light Snow,280,2013-02-16 04:35:00
10:55 PM,6.6,2.3,82,30.17,5.0,West,4.6,-,N/A,Snow,Light Snow,270,2013-02-16 04:55:00
11:15 PM,6.6,2.3,82,30.17,7.0,West,3.5,-,N/A,Snow,Light Snow,260,2013-02-16 05:15:00
11:35 PM,6.6,2.5,83,30.16,7.0,West,3.5,-,N/A,Snow,Light Snow,260,2013-02-16 05:35:00
11:55 PM,6.6,2.7,84,30.16,7.0,Calm,Calm,-,N/A,Snow,Light Snow,0,2013-02-16 05:55:00